Tracking 30743 objects as of 21-Jun-2025
HD Live streaming from Space Station
objects crossing your sky now

IRIDIUM 24

Track IRIDIUM 24 now!
10-day predictions
IRIDIUM 24 is classified as:


NORAD ID: 25105
Int'l Code: 1997-082B
Perigee: 749.0 km
Apogee: 768.4 km
Inclination: 86.4 °
Period: 99.9 minutes
Semi major axis: 7129 km
RCS: 4.2836 m2 (large)
Launch date: December 20, 1997
Source: United States (US)
Launch site: AIR FORCE WESTERN TEST RANGE (AFWTR)
Your satellite tracking list
Your tracking list is empty




NASA's NSSDC Master Catalog

Two Line Element Set (TLE):
1 25105U 97082B   25171.71092206  .00000304  00000-0  86347-4 0  9991
2 25105  86.3901  78.8071 0013572  69.6293 290.6363 14.42101922443721
Source of the keplerian elements: AFSPC